When you browse on this site, cookies collect data to enhance your experience and personalize the content and advertising you see.
Visit our Privacy Policy to learn more. By continuing to use the site, you agree to this use of cookies and data.
  • In Switzerland
  • List of Countries
  • For 7 days
  • Water Temperature
  • Satellite Maps
  • Weather Map
  • Weather Widgets
  • user-avatar
    Login

    Hourly Weather Tolna

    Today, 21 February, Thursday

    Time Temperature Precipitation Wind Pressure Humidity
    00:00 +5°C° 0 mm 2 mps 761 mmHg 69%
    01:00 +5°C° 0 mm 2 mps 761 mmHg 71%
    02:00 +5°C° 0 mm 2 mps 761 mmHg 72%
    03:00 +5°C° 0 mm 2 mps 761 mmHg 73%
    04:00 +4°C° 0 mm 2 mps 762 mmHg 74%
    05:00 +4°C° 0 mm 2 mps 762 mmHg 74%
    06:00 +4°C° 0 mm 2 mps 762 mmHg 75%
    07:00 +4°C° 0 mm 2 mps 762 mmHg 75%
    08:00 +6°C° 0 mm 2 mps 762 mmHg 69%
    09:00 +7°C° 0 mm 2 mps 763 mmHg 63%
    10:00 +9°C° 0 mm 3 mps 763 mmHg 57%
    11:00 +10°C° 0 mm 3 mps 762 mmHg 54%
    12:00 +11°C° 0 mm 3 mps 762 mmHg 52%
    13:00 +12°C° 0 mm 4 mps 762 mmHg 49%
    14:00 +12°C° 0 mm 4 mps 761 mmHg 50%
    15:00 +12°C° 0 mm 3 mps 761 mmHg 51%
    16:00 +12°C° 0 mm 3 mps 761 mmHg 51%
    17:00 +11°C° 0 mm 3 mps 761 mmHg 56%
    18:00 +10°C° 0 mm 2 mps 761 mmHg 60%
    19:00 +9°C° 0 mm 2 mps 761 mmHg 65%
    20:00 +9°C° 0 mm 2 mps 761 mmHg 67%
    21:00 +8°C° 0 mm 3 mps 760 mmHg 69%
    22:00 +8°C° 0 mm 3 mps 760 mmHg 71%
    23:00 +8°C° 0.1 mm 3 mps 760 mmHg 74%

    Tomorrow, 22 February, Friday

    Time Temperature Precipitation Wind Pressure Humidity
    00:00 +8°C° 0.1 mm 3 mps 760 mmHg 77%
    01:00 +8°C° 0.1 mm 3 mps 760 mmHg 81%
    02:00 +7°C° 0 mm 4 mps 759 mmHg 80%
    03:00 +7°C° 0 mm 4 mps 759 mmHg 80%
    04:00 +7°C° 0 mm 5 mps 758 mmHg 79%
    05:00 +7°C° 0.1 mm 5 mps 758 mmHg 80%
    06:00 +7°C° 0.1 mm 5 mps 758 mmHg 82%
    07:00 +7°C° 0.1 mm 5 mps 757 mmHg 83%
    08:00 +7°C° 0.1 mm 6 mps 757 mmHg 81%
    09:00 +8°C° 0.1 mm 7 mps 757 mmHg 78%
    10:00 +7°C° 0.1 mm 8 mps 757 mmHg 76%
    11:00 +10°C° 0.1 mm 8 mps 757 mmHg 70%
    12:00 +11°C° 0.1 mm 8 mps 757 mmHg 64%
    13:00 +12°C° 0.1 mm 8 mps 757 mmHg 59%
    14:00 +11°C° 0.2 mm 8 mps 758 mmHg 62%
    15:00 +10°C° 0.2 mm 7 mps 758 mmHg 64%
    16:00 +10°C° 0.2 mm 7 mps 759 mmHg 67%
    17:00 +8°C° 0.2 mm 7 mps 760 mmHg 59%
    18:00 +5°C° 0.2 mm 8 mps 761 mmHg 51%
    19:00 +2°C° 0.2 mm 8 mps 762 mmHg 42%
    20:00 +1°C° 0 mm 8 mps 764 mmHg 42%
    21:00 -1°C° 0 mm 8 mps 765 mmHg 42%
    22:00 -2°C° 0 mm 7 mps 766 mmHg 42%
    23:00 -3°C° 0 mm 7 mps 766 mmHg 43%

    Day after tomorrow, 23 February, Saturday

    Time Temperature Precipitation Wind Pressure Humidity
    00:00 -3°C° 0 mm 7 mps 767 mmHg 44%
    01:00 -4°C° 0 mm 6 mps 768 mmHg 45%
    02:00 -4°C° 0 mm 6 mps 768 mmHg 45%
    03:00 -5°C° 0 mm 6 mps 768 mmHg 45%
    04:00 -5°C° 0 mm 6 mps 768 mmHg 45%
    05:00 -5°C° 0 mm 6 mps 769 mmHg 44%
    06:00 -5°C° 0 mm 6 mps 769 mmHg 42%
    07:00 -6°C° 0 mm 6 mps 769 mmHg 41%
    08:00 -5°C° 0 mm 6 mps 770 mmHg 38%
    09:00 -4°C° 0 mm 6 mps 770 mmHg 34%
    10:00 -3°C° 0 mm 7 mps 770 mmHg 30%
    11:00 -2°C° 0 mm 7 mps 770 mmHg 29%
    12:00 -2°C° 0 mm 7 mps 770 mmHg 27%
    13:00 -1°C° 0 mm 6 mps 770 mmHg 26%
    14:00 -1°C° 0 mm 6 mps 770 mmHg 26%
    15:00 -1°C° 0 mm 6 mps 769 mmHg 27%
    16:00 0°C° 0 mm 5 mps 769 mmHg 27%
    17:00 -1°C° 0 mm 4 mps 769 mmHg 31%
    18:00 -1°C° 0 mm 3 mps 769 mmHg 35%
    19:00 -2°C° 0 mm 2 mps 770 mmHg 38%
    20:00 -2°C° 0 mm 2 mps 770 mmHg 39%
    21:00 -3°C° 0 mm 2 mps 770 mmHg 40%
    22:00 -3°C° 0 mm 2 mps 770 mmHg 41%
    23:00 -3°C° 0 mm 2 mps 770 mmHg 41%

    24 February, Sunday

    Time Temperature Precipitation Wind Pressure Humidity
    00:00 -3°C° 0 mm 2 mps 770 mmHg 41%
    01:00 -4°C° 0 mm 3 mps 770 mmHg 41%
    02:00 -5°C° 0 mm 3 mps 770 mmHg 41%
    03:00 -4°C° 0 mm 2 mps 770 mmHg 41%
    04:00 -4°C° 0 mm 2 mps 770 mmHg 41%
    05:00 -4°C° 0 mm 2 mps 770 mmHg 40%
    06:00 -4°C° 0 mm 2 mps 770 mmHg 40%
    07:00 -2°C° 0 mm 1 mps 770 mmHg 40%
    08:00 -3°C° 0 mm 2 mps 770 mmHg 35%
    09:00 -1°C° 0 mm 2 mps 770 mmHg 30%
    10:00 0°C° 0 mm 3 mps 770 mmHg 25%
    11:00 +1°C° 0 mm 3 mps 770 mmHg 25%
    12:00 +2°C° 0 mm 3 mps 770 mmHg 24%
    13:00 +3°C° 0 mm 3 mps 769 mmHg 24%
    14:00 +5°C° 0 mm 2 mps 769 mmHg 26%
    15:00 +5°C° 0 mm 2 mps 768 mmHg 28%
    16:00 +5°C° 0 mm 2 mps 768 mmHg 30%
    17:00 +5°C° 0 mm 1 mps 768 mmHg 34%
    18:00 +3°C° 0 mm 1 mps 768 mmHg 37%
    19:00 +1°C° 0 mm 0 mps 768 mmHg 40%
    20:00 +2°C° 0 mm 1 mps 768 mmHg 40%
    21:00 +2°C° 0 mm 1 mps 768 mmHg 40%
    22:00 +2°C° 0 mm 2 mps 767 mmHg 40%
    23:00 +2°C° 0 mm 2 mps 767 mmHg 40%

    25 February, Monday

    Time Temperature Precipitation Wind Pressure Humidity
    00:00 +2°C° 0 mm 2 mps 767 mmHg 40%
    01:00 +2°C° 0 mm 2 mps 766 mmHg 40%
    02:00 +1°C° 0.1 mm 3 mps 766 mmHg 42%
    03:00 +1°C° 0.1 mm 3 mps 765 mmHg 45%
    04:00 0°C° 0.1 mm 3 mps 764 mmHg 47%
    05:00 0°C° 0.6 mm 3 mps 764 mmHg 58%
    06:00 +1°C° 0.6 mm 3 mps 764 mmHg 69%
    07:00 +2°C° 0.6 mm 2 mps 764 mmHg 80%
    08:00 +2°C° 0.1 mm 3 mps 764 mmHg 78%
    09:00 +3°C° 0.1 mm 3 mps 764 mmHg 76%
    10:00 +4°C° 0.1 mm 4 mps 765 mmHg 74%
    11:00 +5°C° 0 mm 4 mps 765 mmHg 71%
    12:00 +7°C° 0 mm 3 mps 764 mmHg 68%
    13:00 +8°C° 0 mm 3 mps 764 mmHg 66%
    14:00 +9°C° 0 mm 3 mps 764 mmHg 66%
    15:00 +9°C° 0 mm 3 mps 764 mmHg 66%
    16:00 +9°C° 0 mm 3 mps 764 mmHg 67%
    17:00 +8°C° 0 mm 3 mps 764 mmHg 70%
    18:00 +7°C° 0 mm 3 mps 764 mmHg 74%
    19:00 +5°C° 0 mm 3 mps 765 mmHg 77%
    20:00 +4°C° 0 mm 3 mps 765 mmHg 79%
    21:00 +3°C° 0 mm 3 mps 765 mmHg 80%
    22:00 +3°C° 0 mm 3 mps 766 mmHg 82%
    23:00 +3°C° 0 mm 2 mps 766 mmHg 83%

    26 February, Tuesday

    Time Temperature Precipitation Wind Pressure Humidity
    00:00 +2°C° 0 mm 2 mps 766 mmHg 84%
    01:00 +2°C° 0 mm 2 mps 766 mmHg 86%
    02:00 +2°C° 0 mm 2 mps 766 mmHg 86%
    03:00 +1°C° 0 mm 2 mps 766 mmHg 86%
    04:00 0°C° 0 mm 3 mps 766 mmHg 87%
    05:00 0°C° 0 mm 3 mps 766 mmHg 86%
    06:00 0°C° 0 mm 3 mps 766 mmHg 86%
    07:00 0°C° 0 mm 3 mps 765 mmHg 86%
    08:00 +2°C° 0 mm 3 mps 765 mmHg 78%
    09:00 +3°C° 0 mm 3 mps 765 mmHg 70%
    10:00 +5°C° 0 mm 3 mps 764 mmHg 62%
    11:00 +7°C° 0 mm 4 mps 764 mmHg 56%
    12:00 +8°C° 0 mm 4 mps 763 mmHg 50%
    13:00 +10°C° 0 mm 5 mps 762 mmHg 44%
    14:00 +10°C° 0 mm 5 mps 762 mmHg 43%
    15:00 +10°C° 0 mm 5 mps 761 mmHg 43%
    16:00 +12°C° 0 mm 5 mps 760 mmHg 42%
    17:00 +9°C° 0 mm 5 mps 760 mmHg 46%
    18:00 +8°C° 0 mm 4 mps 760 mmHg 51%
    19:00 +6°C° 0 mm 4 mps 760 mmHg 55%
    20:00 +7°C° 0 mm 4 mps 760 mmHg 54%
    21:00 +7°C° 0 mm 5 mps 759 mmHg 53%
    22:00 +7°C° 0 mm 5 mps 759 mmHg 51%
    23:00 +7°C° 0 mm 5 mps 759 mmHg 54%
    Show more